TimePDT,TemperatureF,Dew PointF,Humidity,Sea Level PressureIn,VisibilityMPH,Wind Direction,Wind SpeedMPH,Gust SpeedMPH,PrecipitationIn,Events,Conditions,WindDirDegrees,DateUTC
12:56 AM,62.1,26.1,25,29.97,10.0,WSW,6.9,-,N/A,,Clear,240,2013-09-29 07:56:00
1:56 AM,64.9,26.1,23,29.98,10.0,SW,12.7,-,N/A,,Clear,230,2013-09-29 08:56:00
2:56 AM,60.1,26.1,27,29.96,10.0,South,10.4,-,N/A,,Clear,170,2013-09-29 09:56:00
3:56 AM,59.0,25.0,27,29.95,10.0,South,13.8,-,N/A,,Clear,170,2013-09-29 10:56:00
4:56 AM,64.0,24.1,22,29.94,10.0,South,11.5,-,N/A,,Clear,190,2013-09-29 11:56:00
5:56 AM,64.9,25.0,22,29.95,10.0,South,12.7,-,N/A,,Clear,190,2013-09-29 12:56:00
6:56 AM,66.0,28.0,24,29.95,10.0,South,15.0,28.8,N/A,,Clear,180,2013-09-29 13:56:00
7:56 AM,64.9,28.0,25,29.94,10.0,South,17.3,-,N/A,,Clear,190,2013-09-29 14:56:00
8:56 AM,69.1,28.0,22,29.94,10.0,SSW,23.0,35.7,N/A,,Clear,200,2013-09-29 15:56:00
9:56 AM,73.0,28.0,19,29.95,10.0,SSW,23.0,28.8,N/A,,Clear,210,2013-09-29 16:56:00
10:56 AM,73.0,25.0,17,29.95,10.0,SW,21.9,33.4,N/A,,Clear,230,2013-09-29 17:56:00
11:01 AM,73.4,24.8,16,30.04,10.0,SW,26.5,35.7,N/A,,Overcast,230,2013-09-29 18:01:00
11:56 AM,77.0,25.0,15,29.95,10.0,SW,25.3,32.2,N/A,,Overcast,230,2013-09-29 18:56:00
12:56 PM,80.1,26.1,14,29.92,10.0,SW,25.3,33.4,N/A,,Mostly Cloudy,220,2013-09-29 19:56:00
1:56 PM,80.1,26.1,14,29.91,10.0,SW,24.2,31.1,N/A,,Mostly Cloudy,220,2013-09-29 20:56:00
2:56 PM,80.1,27.0,14,29.91,10.0,SW,19.6,26.5,N/A,,Mostly Cloudy,220,2013-09-29 21:56:00
3:56 PM,77.0,26.1,15,29.91,10.0,SW,12.7,20.7,N/A,,Mostly Cloudy,230,2013-09-29 22:56:00
4:56 PM,75.0,26.1,16,29.90,10.0,SW,11.5,-,N/A,,Mostly Cloudy,230,2013-09-29 23:56:00
5:56 PM,73.9,25.0,16,29.90,10.0,SW,18.4,25.3,N/A,,Overcast,220,2013-09-30 00:56:00
6:56 PM,71.1,25.0,18,29.90,10.0,SW,16.1,20.7,N/A,,Clear,220,2013-09-30 01:56:00
7:56 PM,70.0,24.1,18,29.91,10.0,SW,25.3,-,N/A,,Clear,230,2013-09-30 02:56:00
8:56 PM,68.0,24.1,19,29.93,10.0,WSW,15.0,-,N/A,,Clear,240,2013-09-30 03:56:00
9:56 PM,66.0,25.0,21,29.94,10.0,SSW,13.8,-,N/A,,Clear,210,2013-09-30 04:56:00
10:56 PM,64.0,24.1,22,29.94,10.0,SSW,8.1,-,N/A,,Clear,210,2013-09-30 05:56:00
11:56 PM,64.0,24.1,22,29.93,10.0,WSW,10.4,27.6,N/A,,Clear,250,2013-09-30 06:56:00